Location: Haliburton Scout Reserve
(45.0900°N, 78.3200°W)
Time: 01:58:52
(UTC-04:00)

DIWATA 2B (PO-101) - Pass Details

Date: 22 May 2022
Orbit: 585 x 597 km, 98.0° (Epoch: 27 June)

Event Time Altitude Azimuth Distance (km) Brightness Sun altitude
Exits shadow 01:41:56 - 100° (E) 1,997 ? -24.1°
Reaches altitude 10° 01:42:17 10° 96° (E) 1,911 ? -24.1°
Maximum altitude 01:44:35 15° 62° (ENE) 1,630 ? -24.0°
Drops below altitude 10° 01:46:54 10° 28° (NNE) 1,922 ? -24.0°
Sets 01:49:53 0° 5° (N) 2,831 ? -23.9°
